| time (UTC) | temp F | wind direction | speed MPH | gust MPH | rain 1hr in | rain 24hr in | rain mn in | humidity % | barometer mb |
| 20260831132404 | 70 | 20 | 0.0 | 0.0 | 0.00 | 0.03 | 0.00 | 80 | 1018.8 |
| 20260831131904 | 70 | 10 | 0.0 | 0.0 | 0.00 | 0.03 | 0.00 | 82 | 1018.8 |
| 20260831131404 | 70 | 6 | 0.0 | 0.0 | 0.00 | 0.03 | 0.00 | 81 | 1018.9 |
| 20260831130404 | 69 | 5 | 0.0 | 0.0 | 0.00 | 0.03 | 0.00 | 82 | 1019.0 |
| 20260831125404 | 69 | 6 | 0.0 | 0.0 | 0.00 | 0.03 | 0.00 | 83 | 1018.9 |
| 20260831124404 | 69 | 355 | 0.0 | 0.0 | 0.00 | 0.03 | 0.00 | 83 | 1019.0 |
| 20260831123904 | 69 | 359 | 0.0 | 0.0 | 0.00 | 0.03 | 0.00 | 84 | 1019.1 |
| 20260831123404 | 69 | 355 | 0.0 | 0.0 | 0.00 | 0.03 | 0.00 | 85 | 1019.0 |
| 20260831122404 | 69 | 33 | 0.0 | 0.0 | 0.00 | 0.03 | 0.00 | 84 | 1018.9 |
| 20260831121906 | 69 | 33 | 0.0 | 0.0 | 0.00 | 0.03 | 0.00 | 85 | 1018.9 |
| 20260831121404 | 69 | 32 | 0.0 | 0.0 | 0.00 | 0.03 | 0.00 | 84 | 1018.9 |
| 20260831120904 | 69 | 339 | 0.0 | 0.0 | 0.00 | 0.03 | 0.00 | 84 | 1018.9 |
| 20260831115904 | 69 | 338 | 0.0 | 0.0 | 0.00 | 0.03 | 0.00 | 84 | 1018.7 |
| 20260831115405 | 68 | 4 | 0.0 | 0.0 | 0.00 | 0.03 | 0.00 | 85 | 1018.8 |
| 20260831114904 | 68 | 355 | 0.0 | 0.0 | 0.00 | 0.03 | 0.00 | 86 | 1018.8 |
| 20260831114405 | 68 | 346 | 0.0 | 0.0 | 0.00 | 0.03 | 0.00 | 86 | 1018.7 |
| 20260831113904 | 68 | 345 | 0.0 | 0.0 | 0.00 | 0.03 | 0.00 | 86 | 1018.6 |
| 20260831113404 | 68 | 341 | 0.0 | 0.0 | 0.00 | 0.03 | 0.00 | 86 | 1018.4 |
| 20260831112904 | 68 | 341 | 0.0 | 0.0 | 0.00 | 0.03 | 0.00 | 86 | 1018.3 |
| 20260831112404 | 68 | 338 | 0.0 | 0.0 | 0.00 | 0.03 | 0.00 | 86 | 1018.3 |
| 20260831111904 | 68 | 325 | 0.0 | 0.0 | 0.00 | 0.03 | 0.00 | 87 | 1018.2 |
| 20260831111405 | 68 | 325 | 0.0 | 0.0 | 0.00 | 0.03 | 0.00 | 87 | 1018.2 |
| 20260831110404 | 68 | 355 | 0.0 | 0.0 | 0.00 | 0.03 | 0.00 | 87 | 1018.3 |
| 20260831105905 | 68 | 6 | 0.0 | 0.0 | 0.00 | 0.03 | 0.00 | 86 | 1018.3 |
| 20260831105405 | 68 | 5 | 0.0 | 0.0 | 0.00 | 0.03 | 0.00 | 87 | 1018.3 |
| 20260831104905 | 68 | 5 | 0.0 | 0.0 | 0.00 | 0.03 | 0.00 | 86 | 1018.3 |
| 20260831104404 | 68 | 5 | 0.0 | 0.0 | 0.00 | 0.03 | 0.00 | 86 | 1018.2 |
| 20260831103904 | 68 | 8 | 0.0 | 0.0 | 0.00 | 0.03 | 0.00 | 86 | 1018.2 |
| 20260831102904 | 68 | 6 | 0.0 | 1.0 | 0.00 | 0.03 | 0.00 | 86 | 1018.1 |
| 20260831102405 | 68 | 355 | 0.0 | 0.0 | 0.00 | 0.03 | 0.00 | 85 | 1018.0 |
| 20260831101905 | 68 | 356 | 0.0 | 1.0 | 0.00 | 0.03 | 0.00 | 85 | 1018.0 |
| 20260831101405 | 68 | 14 | 0.0 | 2.0 | 0.00 | 0.03 | 0.00 | 85 | 1018.0 |
| 20260831100904 | 68 | 17 | 0.0 | 2.0 | 0.00 | 0.03 | 0.00 | 85 | 1017.9 |
| 20260831100404 | 68 | 7 | 0.0 | 0.0 | 0.00 | 0.03 | 0.00 | 85 | 1017.7 |
| 20260831095904 | 68 | 5 | 0.0 | 0.0 | 0.00 | 0.03 | 0.00 | 84 | 1017.8 |
| 20260831095405 | 68 | 5 | 0.0 | 0.0 | 0.00 | 0.03 | 0.00 | 84 | 1017.8 |
| 20260831094905 | 68 | 5 | 0.0 | 0.0 | 0.00 | 0.03 | 0.00 | 84 | 1017.7 |
| 20260831094405 | 68 | 24 | 0.0 | 0.0 | 0.00 | 0.03 | 0.00 | 84 | 1017.6 |
| 20260831093405 | 68 | 13 | 0.0 | 0.0 | 0.00 | 0.03 | 0.00 | 85 | 1017.5 |
| 20260831092906 | 68 | 311 | 0.0 | 0.0 | 0.00 | 0.03 | 0.00 | 85 | 1017.5 |
| 20260831092404 | 68 | 310 | 0.0 | 0.0 | 0.00 | 0.03 | 0.00 | 84 | 1017.4 |
| 20260831091404 | 68 | 308 | 0.0 | 0.0 | 0.00 | 0.03 | 0.00 | 84 | 1017.5 |
| 20260831090905 | 68 | 308 | 0.0 | 0.0 | 0.00 | 0.03 | 0.00 | 84 | 1017.4 |
| 20260831090404 | 68 | 308 | 0.0 | 0.0 | 0.00 | 0.03 | 0.00 | 84 | 1017.4 |
| 20260831085903 | 68 | 307 | 0.0 | 0.0 | 0.00 | 0.03 | 0.00 | 84 | 1017.4 |
| 20260831085403 | 69 | 311 | 0.0 | 0.0 | 0.00 | 0.03 | 0.00 | 84 | 1017.3 |
| 20260831084903 | 69 | 318 | 0.0 | 0.0 | 0.00 | 0.03 | 0.00 | 83 | 1017.2 |
| 20260831084404 | 69 | 300 | 0.0 | 0.0 | 0.00 | 0.03 | 0.00 | 83 | 1017.2 |
| 20260831083904 | 69 | 305 | 0.0 | 0.0 | 0.00 | 0.03 | 0.00 | 83 | 1017.2 |
| 20260831083404 | 69 | 289 | 0.0 | 0.0 | 0.00 | 0.03 | 0.00 | 83 | 1017.3 |
| 20260831082904 | 69 | 299 | 0.0 | 0.0 | 0.00 | 0.03 | 0.00 | 83 | 1017.3 |
| 20260831082404 | 69 | 275 | 0.0 | 0.0 | 0.00 | 0.03 | 0.00 | 83 | 1017.4 |
| 20260831081904 | 69 | 286 | 0.0 | 0.0 | 0.00 | 0.03 | 0.00 | 83 | 1017.4 |
| 20260831081405 | 69 | 322 | 0.0 | 0.0 | 0.00 | 0.03 | 0.00 | 83 | 1017.4 |
| 20260831080904 | 69 | 313 | 0.0 | 0.0 | 0.00 | 0.03 | 0.00 | 82 | 1017.4 |
| 20260831080404 | 69 | 313 | 0.0 | 0.0 | 0.00 | 0.03 | 0.00 | 82 | 1017.4 |
| 20260831075405 | 69 | 313 | 0.0 | 0.0 | 0.00 | 0.03 | 0.00 | 82 | 1017.4 |
| 20260831074904 | 69 | 313 | 0.0 | 0.0 | 0.00 | 0.03 | 0.00 | 82 | 1017.4 |
| 20260831074405 | 69 | 313 | 0.0 | 0.0 | 0.00 | 0.03 | 0.00 | 82 | 1017.4 |
| 20260831073904 | 69 | 312 | 0.0 | 0.0 | 0.00 | 0.03 | 0.00 | 82 | 1017.4 |
| 20260831073404 | 69 | 312 | 0.0 | 0.0 | 0.00 | 0.03 | 0.00 | 82 | 1017.4 |
| 20260831072904 | 69 | 312 | 0.0 | 0.0 | 0.00 | 0.03 | 0.00 | 82 | 1017.4 |
| 20260831072404 | 69 | 312 | 0.0 | 0.0 | 0.00 | 0.03 | 0.00 | 82 | 1017.4 |
| 20260831071404 | 70 | 312 | 0.0 | 0.0 | 0.00 | 0.03 | 0.00 | 81 | 1017.4 |
| 20260831070905 | 70 | 312 | 0.0 | 0.0 | 0.00 | 0.03 | 0.00 | 81 | 1017.4 |
| 20260831065904 | 70 | 282 | 0.0 | 0.0 | 0.00 | 0.03 | 0.00 | 81 | 1017.5 |
| 20260831065403 | 70 | 268 | 0.0 | 0.0 | 0.00 | 0.03 | 0.00 | 82 | 1017.4 |
| 20260831064906 | 70 | 262 | 0.0 | 0.0 | 0.00 | 0.03 | 0.00 | 82 | 1017.4 |
| 20260831064404 | 70 | 327 | 0.0 | 0.0 | 0.00 | 0.03 | 0.00 | 82 | 1017.4 |
| 20260831063904 | 70 | 327 | 0.0 | 0.0 | 0.00 | 0.03 | 0.00 | 82 | 1017.4 |
| 20260831063404 | 70 | 345 | 0.0 | 0.0 | 0.00 | 0.03 | 0.00 | 82 | 1017.4 |
| 20260831062904 | 70 | 346 | 0.0 | 0.0 | 0.00 | 0.03 | 0.00 | 82 | 1017.4 |
| 20260831062405 | 70 | 346 | 0.0 | 0.0 | 0.00 | 0.03 | 0.00 | 82 | 1017.4 |
| 20260831061904 | 70 | 355 | 0.0 | 0.0 | 0.00 | 0.03 | 0.00 | 82 | 1017.4 |
| 20260831061405 | 70 | 0 | 0.0 | 0.0 | 0.00 | 0.03 | 0.00 | 82 | 1017.2 |
| 20260831060906 | 70 | 299 | 0.0 | 0.0 | 0.00 | 0.03 | 0.00 | 82 | 1017.3 |
| 20260831060405 | 70 | 299 | 0.0 | 1.0 | 0.00 | 0.03 | 0.00 | 82 | 1017.4 |
| 20260831055905 | 70 | 295 | 0.0 | 3.0 | 0.00 | 0.03 | 0.00 | 81 | 1017.4 |
| 20260831055404 | 70 | 314 | 0.0 | 1.0 | 0.00 | 0.03 | 0.00 | 81 | 1017.4 |
| 20260831054404 | 70 | 284 | 1.0 | 5.0 | 0.00 | 0.03 | 0.00 | 82 | 1017.3 |
| 20260831053904 | 70 | 296 | 1.0 | 5.0 | 0.00 | 0.03 | 0.00 | 83 | 1017.5 |
| 20260831053405 | 70 | 291 | 1.0 | 5.0 | 0.00 | 0.03 | 0.00 | 83 | 1017.6 |
| 20260831052904 | 70 | 289 | 0.0 | 6.0 | 0.00 | 0.03 | 0.00 | 83 | 1017.6 |
| 20260831052405 | 70 | 298 | 0.0 | 1.0 | 0.00 | 0.03 | 0.00 | 82 | 1017.5 |
| 20260831051406 | 71 | 279 | 0.0 | 1.0 | 0.00 | 0.03 | 0.00 | 82 | 1017.5 |
| 20260831050906 | 71 | 306 | 0.0 | 1.0 | 0.00 | 0.03 | 0.00 | 82 | 1017.5 |
| 20260831050406 | 71 | 307 | 0.0 | 1.0 | 0.00 | 0.03 | 0.00 | 82 | 1017.6 |
| 20260831044405 | 71 | 290 | 0.0 | 1.0 | 0.00 | 0.03 | 0.00 | 83 | 1017.5 |
| 20260831043906 | 71 | 300 | 1.0 | 8.0 | 0.00 | 0.03 | 0.00 | 83 | 1017.4 |
| 20260831043405 | 71 | 309 | 0.0 | 0.0 | 0.00 | 0.03 | 0.00 | 84 | 1017.4 |
| 20260831042904 | 71 | 314 | 0.0 | 0.0 | 0.00 | 0.03 | 0.00 | 85 | 1017.3 |
| 20260831042405 | 71 | 321 | 0.0 | 0.0 | 0.00 | 0.03 | 0.00 | 86 | 1017.3 |
| 20260831040904 | 71 | 310 | 0.0 | 0.0 | 0.00 | 0.03 | 0.00 | 87 | 1017.2 |
| 20260831035905 | 71 | 290 | 0.0 | 0.0 | 0.00 | 0.03 | 0.03 | 88 | 1017.1 |
| 20260831035404 | 72 | 309 | 0.0 | 0.0 | 0.00 | 0.03 | 0.03 | 88 | 1017.1 |
| 20260831034904 | 72 | 309 | 0.0 | 0.0 | 0.00 | 0.03 | 0.03 | 88 | 1017.2 |
| 20260831034405 | 72 | 319 | 0.0 | 0.0 | 0.00 | 0.03 | 0.03 | 88 | 1017.2 |
| 20260831033405 | 72 | 306 | 0.0 | 0.0 | 0.00 | 0.03 | 0.03 | 88 | 1017.4 |
| 20260831032904 | 72 | 291 | 0.0 | 0.0 | 0.00 | 0.03 | 0.03 | 88 | 1017.4 |
| 20260831032404 | 72 | 304 | 0.0 | 0.0 | 0.00 | 0.03 | 0.03 | 88 | 1017.4 |
| 20260831031404 | 72 | 282 | 0.0 | 0.0 | 0.00 | 0.03 | 0.03 | 88 | 1017.1 |
| 20260831030904 | 72 | 298 | 0.0 | 0.0 | 0.00 | 0.03 | 0.03 | 88 | 1017.1 |
| 20260831025405 | 73 | 297 | 0.0 | 3.0 | 0.00 | 0.03 | 0.03 | 89 | 1017.2 |
| 20260831024903 | 73 | 295 | 0.0 | 1.0 | 0.01 | 0.03 | 0.03 | 89 | 1017.4 |
| 20260831024403 | 73 | 299 | 1.0 | 5.0 | 0.01 | 0.03 | 0.03 | 88 | 1017.4 |
| 20260831023904 | 73 | 263 | 0.0 | 0.0 | 0.01 | 0.03 | 0.03 | 88 | 1017.5 |
| 20260831022904 | 73 | 259 | 0.0 | 1.0 | 0.02 | 0.03 | 0.03 | 87 | 1017.4 |
| 20260831022405 | 73 | 259 | 0.0 | 1.0 | 0.02 | 0.03 | 0.03 | 87 | 1017.6 |
| 20260831021903 | 73 | 277 | 0.0 | 1.0 | 0.02 | 0.03 | 0.03 | 87 | 1017.6 |
| 20260831020904 | 73 | 257 | 1.0 | 6.0 | 0.03 | 0.03 | 0.03 | 87 | 1017.8 |
| 20260831020403 | 73 | 262 | 2.0 | 6.0 | 0.03 | 0.03 | 0.03 | 87 | 1017.8 |
| 20260831015905 | 73 | 245 | 0.0 | 5.0 | 0.03 | 0.03 | 0.03 | 86 | 1017.9 |
| 20260831015404 | 73 | 267 | 0.0 | 7.0 | 0.03 | 0.03 | 0.03 | 85 | 1017.8 |
| 20260831014404 | 74 | 275 | 5.0 | 9.0 | 0.02 | 0.02 | 0.02 | 85 | 1017.8 |
| 20260831013904 | 74 | 264 | 1.0 | 3.0 | 0.02 | 0.02 | 0.02 | 85 | 1017.7 |
| 20260831013405 | 74 | 269 | 0.0 | 0.0 | 0.01 | 0.01 | 0.01 | 85 | 1017.5 |
| 20260831012404 | 74 | 267 | 0.0 | 0.0 | 0.01 | 0.01 | 0.01 | 85 | 1017.5 |
| 20260831011404 | 74 | 260 | 0.0 | 0.0 | 0.01 | 0.01 | 0.01 | 83 | 1017.3 |
| 20260831010904 | 74 | 259 | 0.0 | 0.0 | 0.00 | 0.00 | 0.00 | 83 | 1017.3 |
| 20260831005904 | 75 | 269 | 0.0 | 1.0 | 0.00 | 0.00 | 0.00 | 83 | 1017.1 |
| 20260831005404 | 75 | 271 | 0.0 | 1.0 | 0.00 | 0.00 | 0.00 | 83 | 1017.1 |
| 20260831004905 | 75 | 252 | 0.0 | 1.0 | 0.00 | 0.00 | 0.00 | 83 | 1017.1 |
| 20260831004404 | 75 | 246 | 2.0 | 9.0 | 0.00 | 0.00 | 0.00 | 82 | 1017.1 |
| 20260831003904 | 75 | 249 | 3.0 | 7.0 | 0.00 | 0.00 | 0.00 | 82 | 1017.0 |
| 20260831003405 | 75 | 240 | 0.0 | 1.0 | 0.00 | 0.00 | 0.00 | 83 | 1017.0 |
| 20260831002904 | 76 | 226 | 0.0 | 2.0 | 0.00 | 0.00 | 0.00 | 82 | 1017.0 |
| 20260831002405 | 76 | 249 | 1.0 | 3.0 | 0.00 | 0.00 | 0.00 | 80 | 1016.9 |
| 20260831001904 | 77 | 267 | 0.0 | 1.0 | 0.00 | 0.00 | 0.00 | 79 | 1016.8 |
| 20260831000904 | 77 | 254 | 0.0 | 0.0 | 0.00 | 0.00 | 0.00 | 78 | 1016.6 |
| 20260831000404 | 77 | 253 | 0.0 | 1.0 | 0.00 | 0.00 | 0.00 | 78 | 1016.6 |
| 20260830235904 | 77 | 252 | 0.0 | 1.0 | 0.00 | 0.00 | 0.00 | 77 | 1016.5 |
| 20260830235404 | 77 | 234 | 2.0 | 5.0 | 0.00 | 0.00 | 0.00 | 77 | 1016.6 |
| 20260830234904 | 77 | 257 | 0.0 | 5.0 | 0.00 | 0.00 | 0.00 | 77 | 1016.5 |
| 20260830234405 | 77 | 257 | 2.0 | 6.0 | 0.00 | 0.00 | 0.00 | 77 | 1016.4 |
| 20260830233405 | 77 | 240 | 3.0 | 7.0 | 0.00 | 0.00 | 0.00 | 77 | 1016.3 |
| 20260830232905 | 77 | 232 | 2.0 | 5.0 | 0.00 | 0.00 | 0.00 | 77 | 1016.3 |
| 20260830232404 | 77 | 263 | 3.0 | 8.0 | 0.00 | 0.00 | 0.00 | 77 | 1016.2 |
| 20260830231904 | 77 | 235 | 0.0 | 3.0 | 0.00 | 0.00 | 0.00 | 77 | 1016.2 |
| 20260830231405 | 77 | 258 | 2.0 | 6.0 | 0.00 | 0.00 | 0.00 | 77 | 1016.3 |
| 20260830230904 | 77 | 241 | 0.0 | 1.0 | 0.00 | 0.00 | 0.00 | 77 | 1016.3 |
| 20260830230405 | 77 | 241 | 2.0 | 8.0 | 0.00 | 0.00 | 0.00 | 76 | 1016.3 |
| 20260830225904 | 77 | 252 | 2.0 | 8.0 | 0.00 | 0.00 | 0.00 | 76 | 1016.4 |
| 20260830225404 | 77 | 243 | 0.0 | 10.0 | 0.00 | 0.00 | 0.00 | 76 | 1016.5 |
| 20260830224904 | 78 | 233 | 3.0 | 10.0 | 0.00 | 0.00 | 0.00 | 76 | 1016.3 |
| 20260830224405 | 78 | 219 | 5.0 | 8.0 | 0.00 | 0.00 | 0.00 | 75 | 1016.2 |
| 20260830223405 | 78 | 224 | 5.0 | 12.0 | 0.00 | 0.00 | 0.00 | 75 | 1016.3 |
| 20260830222904 | 78 | 244 | 2.0 | 7.0 | 0.00 | 0.00 | 0.00 | 75 | 1016.3 |
| 20260830222405 | 78 | 236 | 5.0 | 10.0 | 0.00 | 0.00 | 0.00 | 75 | 1016.2 |
| 20260830221905 | 78 | 218 | 7.0 | 12.0 | 0.00 | 0.00 | 0.00 | 75 | 1016.5 |
| 20260830220905 | 78 | 241 | 3.0 | 6.0 | 0.00 | 0.00 | 0.00 | 75 | 1016.4 |
| 20260830220406 | 78 | 221 | 2.0 | 9.0 | 0.00 | 0.00 | 0.00 | 74 | 1016.4 |
| 20260830215905 | 78 | 228 | 6.0 | 9.0 | 0.00 | 0.00 | 0.00 | 74 | 1016.6 |
| 20260830215405 | 78 | 225 | 3.0 | 8.0 | 0.00 | 0.00 | 0.00 | 74 | 1016.6 |
| 20260830214405 | 78 | 243 | 6.0 | 12.0 | 0.00 | 0.00 | 0.00 | 73 | 1016.3 |
| 20260830213905 | 78 | 227 | 8.0 | 13.0 | 0.00 | 0.00 | 0.00 | 73 | 1016.3 |
| 20260830213405 | 79 | 236 | 3.0 | 15.0 | 0.00 | 0.00 | 0.00 | 73 | 1016.2 |
| 20260830212904 | 79 | 242 | 6.0 | 15.0 | 0.00 | 0.00 | 0.00 | 72 | 1016.1 |
| 20260830212405 | 79 | 239 | 3.0 | 12.0 | 0.00 | 0.00 | 0.00 | 72 | 1016.2 |
| 20260830211904 | 80 | 246 | 1.0 | 9.0 | 0.00 | 0.00 | 0.00 | 71 | 1016.2 |
| 20260830211404 | 80 | 269 | 5.0 | 12.0 | 0.00 | 0.00 | 0.00 | 70 | 1016.3 |
| 20260830210903 | 81 | 233 | 9.0 | 13.0 | 0.00 | 0.00 | 0.00 | 69 | 1016.3 |
| 20260830210403 | 80 | 251 | 5.0 | 9.0 | 0.00 | 0.00 | 0.00 | 72 | 1016.3 |
| 20260830205904 | 80 | 243 | 4.0 | 13.0 | 0.00 | 0.00 | 0.00 | 72 | 1016.3 |
| 20260830205403 | 80 | 243 | 4.0 | 9.0 | 0.00 | 0.00 | 0.00 | 72 | 1016.5 |
| 20260830204903 | 79 | 243 | 6.0 | 12.0 | 0.00 | 0.00 | 0.00 | 73 | 1016.5 |
| 20260830203903 | 79 | 236 | 7.0 | 15.0 | 0.00 | 0.00 | 0.00 | 73 | 1016.7 |
| 20260830203403 | 79 | 227 | 4.0 | 10.0 | 0.00 | 0.00 | 0.00 | 72 | 1016.7 |
| 20260830202403 | 79 | 225 | 6.0 | 12.0 | 0.00 | 0.00 | 0.00 | 72 | 1016.8 |
| 20260830201904 | 79 | 234 | 5.0 | 9.0 | 0.00 | 0.00 | 0.00 | 72 | 1016.9 |
| 20260830201405 | 79 | 238 | 9.0 | 13.0 | 0.00 | 0.00 | 0.00 | 71 | 1016.9 |
| 20260830200904 | 79 | 250 | 9.0 | 17.0 | 0.00 | 0.00 | 0.00 | 73 | 1017.0 |
| 20260830200404 | 78 | 240 | 6.0 | 12.0 | 0.00 | 0.00 | 0.00 | 74 | 1017.0 |
| 20260830195904 | 78 | 246 | 7.0 | 12.0 | 0.00 | 0.00 | 0.00 | 74 | 1017.0 |
| 20260830194904 | 78 | 213 | 6.0 | 13.0 | 0.00 | 0.00 | 0.00 | 74 | 1017.1 |
| 20260830194404 | 78 | 240 | 9.0 | 14.0 | 0.00 | 0.00 | 0.00 | 73 | 1017.2 |
| 20260830193904 | 78 | 243 | 9.0 | 16.0 | 0.00 | 0.00 | 0.00 | 73 | 1017.1 |
| 20260830192904 | 78 | 209 | 6.0 | 14.0 | 0.00 | 0.00 | 0.00 | 73 | 1017.2 |
| 20260830192404 | 78 | 191 | 6.0 | 12.0 | 0.00 | 0.00 | 0.00 | 73 | 1017.2 |
| 20260830191905 | 78 | 228 | 8.0 | 14.0 | 0.00 | 0.00 | 0.00 | 74 | 1017.4 |
| 20260830191404 | 78 | 210 | 6.0 | 16.0 | 0.00 | 0.00 | 0.00 | 74 | 1017.5 |
| 20260830190904 | 78 | 239 | 8.0 | 10.0 | 0.00 | 0.00 | 0.00 | 74 | 1017.5 |
| 20260830190404 | 77 | 247 | 7.0 | 12.0 | 0.00 | 0.00 | 0.00 | 75 | 1017.9 |
| 20260830185905 | 77 | 227 | 6.0 | 10.0 | 0.00 | 0.00 | 0.00 | 74 | 1017.9 |
| 20260830185404 | 77 | 230 | 6.0 | 12.0 | 0.00 | 0.00 | 0.00 | 74 | 1018.0 |
| 20260830184904 | 77 | 237 | 8.0 | 13.0 | 0.00 | 0.00 | 0.00 | 74 | 1018.0 |
| 20260830184404 | 77 | 248 | 5.0 | 12.0 | 0.00 | 0.00 | 0.00 | 73 | 1018.1 |
| 20260830183904 | 77 | 204 | 5.0 | 12.0 | 0.00 | 0.00 | 0.00 | 74 | 1018.1 |
| 20260830183404 | 77 | 232 | 3.0 | 9.0 | 0.00 | 0.00 | 0.00 | 74 | 1018.2 |
| 20260830182904 | 77 | 229 | 2.0 | 7.0 | 0.00 | 0.00 | 0.00 | 73 | 1018.2 |
| 20260830182404 | 76 | 255 | 2.0 | 9.0 | 0.00 | 0.00 | 0.00 | 73 | 1018.3 |
| 20260830181906 | 76 | 235 | 2.0 | 12.0 | 0.00 | 0.00 | 0.00 | 73 | 1018.3 |
| 20260830180904 | 77 | 242 | 6.0 | 12.0 | 0.00 | 0.00 | 0.00 | 72 | 1018.5 |
| 20260830180405 | 77 | 203 | 4.0 | 12.0 | 0.00 | 0.00 | 0.00 | 73 | 1018.5 |
| 20260830175905 | 76 | 221 | 6.0 | 12.0 | 0.00 | 0.00 | 0.00 | 73 | 1018.6 |
| 20260830175404 | 76 | 249 | 10.0 | 20.0 | 0.00 | 0.00 | 0.00 | 72 | 1018.7 |
| 20260830174904 | 76 | 183 | 9.0 | 20.0 | 0.00 | 0.00 | 0.00 | 71 | 1018.7 |
| 20260830174405 | 77 | 197 | 7.0 | 13.0 | 0.00 | 0.00 | 0.00 | 71 | 1018.7 |
| 20260830173404 | 77 | 196 | 6.0 | 13.0 | 0.00 | 0.00 | 0.00 | 71 | 1018.7 |
| 20260830172405 | 77 | 206 | 9.0 | 16.0 | 0.00 | 0.00 | 0.00 | 69 | 1018.7 |
| 20260830171905 | 78 | 213 | 8.0 | 14.0 | 0.00 | 0.00 | 0.00 | 67 | 1018.7 |
| 20260830170904 | 78 | 209 | 5.0 | 12.0 | 0.00 | 0.00 | 0.00 | 68 | 1018.7 |
| 20260830170404 | 79 | 245 | 5.0 | 14.0 | 0.00 | 0.00 | 0.00 | 68 | 1019.0 |
| 20260830165904 | 77 | 168 | 7.0 | 18.0 | 0.00 | 0.00 | 0.00 | 68 | 1019.0 |
| 20260830165405 | 77 | 187 | 1.0 | 10.0 | 0.00 | 0.00 | 0.00 | 69 | 1018.9 |
| 20260830164904 | 76 | 211 | 3.0 | 9.0 | 0.00 | 0.00 | 0.00 | 68 | 1018.9 |
| 20260830164405 | 76 | 201 | 4.0 | 10.0 | 0.00 | 0.00 | 0.00 | 68 | 1018.9 |
| 20260830163905 | 76 | 217 | 6.0 | 12.0 | 0.00 | 0.00 | 0.00 | 68 | 1018.9 |
| 20260830163404 | 75 | 238 | 6.0 | 12.0 | 0.00 | 0.00 | 0.00 | 68 | 1019.1 |
| 20260830162904 | 75 | 222 | 4.0 | 15.0 | 0.00 | 0.00 | 0.00 | 69 | 1019.1 |
| 20260830161904 | 76 | 208 | 3.0 | 10.0 | 0.00 | 0.00 | 0.00 | 64 | 1019.2 |
| 20260830161405 | 76 | 230 | 7.0 | 12.0 | 0.00 | 0.00 | 0.00 | 63 | 1019.3 |
| 20260830160905 | 76 | 215 | 5.0 | 12.0 | 0.00 | 0.00 | 0.00 | 62 | 1019.4 |
| 20260830160406 | 77 | 239 | 8.0 | 13.0 | 0.00 | 0.00 | 0.00 | 60 | 1019.4 |
| 20260830155905 | 78 | 231 | 9.0 | 15.0 | 0.00 | 0.00 | 0.00 | 60 | 1019.5 |
| 20260830155405 | 78 | 196 | 2.0 | 12.0 | 0.00 | 0.00 | 0.00 | 63 | 1019.5 |
| 20260830154906 | 77 | 240 | 4.0 | 9.0 | 0.00 | 0.00 | 0.00 | 63 | 1019.5 |
| 20260830154404 | 76 | 230 | 6.0 | 12.0 | 0.00 | 0.00 | 0.00 | 63 | 1019.6 |
| 20260830153905 | 76 | 231 | 3.0 | 8.0 | 0.00 | 0.00 | 0.00 | 63 | 1019.6 |
| 20260830153405 | 75 | 198 | 6.0 | 12.0 | 0.00 | 0.00 | 0.00 | 64 | 1019.7 |
| 20260830152905 | 75 | 205 | 7.0 | 15.0 | 0.00 | 0.00 | 0.00 | 64 | 1019.8 |
| 20260830152405 | 75 | 195 | 7.0 | 12.0 | 0.00 | 0.00 | 0.00 | 63 | 1019.8 |
| 20260830151903 | 75 | 237 | 6.0 | 12.0 | 0.00 | 0.00 | 0.00 | 64 | 1019.9 |
| 20260830151404 | 74 | 223 | 3.0 | 8.0 | 0.00 | 0.00 | 0.00 | 63 | 1020.0 |
| 20260830150405 | 75 | 247 | 3.0 | 10.0 | 0.00 | 0.00 | 0.00 | 63 | 1020.1 |
| 20260830145904 | 75 | 243 | 5.0 | 12.0 | 0.00 | 0.00 | 0.00 | 63 | 1020.2 |
| 20260830145404 | 75 | 202 | 5.0 | 10.0 | 0.00 | 0.00 | 0.00 | 63 | 1020.2 |
| 20260830144904 | 74 | 214 | 3.0 | 7.0 | 0.00 | 0.00 | 0.00 | 64 | 1020.2 |
| 20260830144404 | 74 | 202 | 2.0 | 7.0 | 0.00 | 0.00 | 0.00 | 63 | 1020.2 |
| 20260830143904 | 74 | 214 | 5.0 | 9.0 | 0.00 | 0.00 | 0.00 | 63 | 1020.2 |
| 20260830143404 | 74 | 236 | 5.0 | 13.0 | 0.00 | 0.00 | 0.00 | 62 | 1020.3 |
| 20260830142904 | 74 | 233 | 7.0 | 14.0 | 0.00 | 0.00 | 0.00 | 62 | 1020.2 |
| 20260830142404 | 74 | 221 | 6.0 | 13.0 | 0.00 | 0.00 | 0.00 | 61 | 1020.2 |
| 20260830141904 | 74 | 228 | 6.0 | 12.0 | 0.00 | 0.00 | 0.00 | 62 | 1020.3 |
| 20260830141404 | 74 | 221 | 5.0 | 12.0 | 0.00 | 0.00 | 0.00 | 60 | 1020.3 |
| 20260830140404 | 73 | 171 | 5.0 | 13.0 | 0.00 | 0.00 | 0.00 | 60 | 1020.3 |
| 20260830135904 | 73 | 205 | 5.0 | 12.0 | 0.00 | 0.00 | 0.00 | 61 | 1020.4 |
| 20260830134905 | 72 | 194 | 3.0 | 10.0 | 0.00 | 0.00 | 0.00 | 59 | 1020.5 |
| 20260830134404 | 72 | 219 | 3.0 | 10.0 | 0.00 | 0.00 | 0.00 | 60 | 1020.6 |
| 20260830133904 | 71 | 216 | 2.0 | 9.0 | 0.00 | 0.00 | 0.00 | 62 | 1020.6 |
| 20260830133406 | 71 | 203 | 2.0 | 3.0 | 0.00 | 0.00 | 0.00 | 63 | 1020.7 |
| 20260830132904 | 71 | 208 | 3.0 | 9.0 | 0.00 | 0.00 | 0.00 | 63 | 1020.8 |